Regional Weather Roundup
Issued by NWS

Home | Current Version | Previous Version | Text Only | Print | Product List | Glossary On
Versions: 1 2 3 4 5 6 7 8 9 10 11 12 13 14 15 16 17 18 19 20 21 22 23 24 25 26 27 28 29 30 31 32 33 34 35 36 37 38 39 40 41 42 43 44 45 46 47 48 49 50
000
ASUS46 KLOX 241413
RWRCA

SOUTHERN CALIFORNIA WEATHER ROUNDUP
NATIONAL WEATHER SERVICE OXNARD CALIFORNIA
700 AM PDT TUE MAY 24 2016

NOTE: "FAIR" INDICATES FEW OR NO CLOUDS BELOW 12,000 FEET WITH NO
SIGNIFICANT WEATHER AND/OR OBSTRUCTIONS TO VISIBILITY.

  -  STATIONS PRECEEDED BY AN ASTERISK (*) ARE NOT NWS OR FAA
     STATIONS AND ARE NOT SUBJECT TO NWS AND FAA QUALITY CONTROL.

CAZ041-042-087-241500-
LA AND ORANGE COUNTY COASTAL AREAS


CITY           SKY/WX    TMP DP  RH WIND       PRES   REMARKS
L.A. DOWNTOWN  MOSUNNY   61  52  72 CALM      29.95R
L.A. AIRPORT   PTSUNNY   59  52  77 NE6       29.95R
LONG BEACH     MOSUNNY   60  52  74 SW3       29.95R

CITY           SKY/WX    TMP DP  RH WIND       PRES   REMARKS
AVALON           N/A     55 N/A N/A MISG        N/A
FULLERTON      PTSUNNY   61  53  75 E5        29.94R
*GETTY CENTER    N/A     54  50  87 E1          N/A
HAWTHORNE      SUNNY     60  52  74 CALM      29.95R
*LEO CARRILLO    N/A     57  49  76 N5          N/A
*LOS ALAMITOS  MOSUNNY   58  52  80 S2        29.95R
*REDONDO BEACH   N/A     56  53  88 CALM      29.95R
SANTA ANA      PTSUNNY   60  52  74 SE5       29.95R
STA MONICA APT MOSUNNY   59  52  77 CALM      29.95R
TORRANCE       MOSUNNY   59  54  82 CALM      29.96
*UCLA            N/A     57  50  77 CALM      29.92S

$$

CAZ547-548-048-241500-
LA COUNTY VALLEYS AND INLAND EMPIRE


CITY           SKY/WX    TMP DP  RH WIND       PRES   REMARKS
BURBANK        CLOUDY    57  48  72 SE3       29.94R
VAN NUYS       CLOUDY    57  50  77 SE3       29.95R

CITY           SKY/WX    TMP DP  RH WIND       PRES   REMARKS
CORONA AIRPORT CLOUDY    58  49  72 CALM      29.96R
*CHATSWORTH      N/A     57  50  79 E1        29.96R
CHINO          PTSUNNY   59  50  72 W5        29.96R
*CLAREMONT       N/A     54  50  87 CALM        N/A
MARCH AFB      PTSUNNY   55  46  71 S6        29.95R
*NORTHRIDGE      N/A     55  48  76 CALM        N/A
ONTARIO        PTSUNNY   57  48  72 W6        29.95R
*PASADENA        N/A     57  52  82 N2          N/A
POMONA         CLOUDY    55  48  76 S6        29.98
RIVERSIDE      PTSUNNY   58  47  66 CALM      29.95R
SAN BERNARDINO CLOUDY    59  46  63 CALM      29.95
*SAN GABRIEL     N/A     59  52  79 S3        30.02R
*SAN RAFAEL HI   N/A     52  50  94 S5          N/A
*SAUGUS          N/A     54  49  82 S7          N/A
*WHITEMAN AP   NOT AVBL
*WHITTIER HILL   N/A     56  52  85 SE2         N/A
*WOODLAND HILL   N/A     55  50  82 SE2         N/A

$$

CAZ054-055-241500-
LA AND SAN BERNARDINO COUNTY MOUNTAINS


CITY           SKY/WX    TMP DP  RH WIND       PRES   REMARKS
*ACTON           N/A     50  45  84 SW3         N/A
*BIG BEAR AIRP SUNNY     36  32  87 W9        29.94S WCI  29
*BIG PINES       N/A     35  35  98 SW2         N/A
*CHILAO          N/A     41  39  94 S6          N/A
SANDBERG       FOG       45  43  93 SW6       29.96R VSB 1/4
*WARM SPRINGS    N/A     45  32  59 CALM        N/A

$$

CAZ028-029-059-060-099-241500-
ANTELOPE VALLEY AND SURROUNDING AREAS


CITY           SKY/WX    TMP DP  RH WIND       PRES   REMARKS
LANCASTER      SUNNY     53  44  71 SW17      29.92R
PALMDALE       CLOUDY    53  43  68 SW17      29.92R
*POPPY PARK      N/A     53  43  69 SW16        N/A

CITY           SKY/WX    TMP DP  RH WIND       PRES   REMARKS
29 PALMS       SUNNY     58  37  45 W12       29.92R
BARSTOW/DAGGET SUNNY     59  41  51 SW21G31   29.85R
BISHOP         CLOUDY    51  39  63 N10       29.85R
CHINA LAKE     MOSUNNY   62  32  32 SW7       29.78R
EDWARDS AFB    MOSUNNY   54  42  63 SW21G32   29.86R
MOJAVE         MOSUNNY   54  41  62 W20G26    29.88R
NEEDLES        SUNNY     72  38  29 SW5       29.79R
VICTORVILLE    SUNNY     52  41  66 SW10      29.90R

$$

CAZ039-040-241500-
VENTURA AND SANTA BARBARA COUNTY COAST


CITY           SKY/WX    TMP DP  RH WIND       PRES   REMARKS
CAMARILLO      CLOUDY    58  50  75 SE3       29.95R
NWS OXNARD       N/A     56  50  80 SW1       29.94R
OXNARD AIRPORT PTSUNNY   57  51  80 E7        29.95R
*POINT MUGU    MOSUNNY   58  54  86 SW5       29.96R
SBA APT/GOLETA SUNNY     54  47  77 CALM      29.95R
*SANTA BARBARA   N/A     59  52  77 CALM      30.02S
*VENTURA         N/A     57  52  84 NE1       29.93S

$$

CAZ044-045-241500-
VENTURA COUNTY VALLEYS


CITY           SKY/WX    TMP DP  RH WIND       PRES   REMARKS
*SIMI VALLEY     N/A     56  50  81 CALM      29.92R
*WESTLAKE VILL   N/A     53  49  86 CALM      29.94R
*OJAI            N/A     54  50  87 CALM      29.91R
*FILLMORE        N/A     57  53  84 CALM      29.85R

$$

CAZ053-241500-
VENTURA COUNTY MOUNTAINS


CITY           SKY/WX    TMP DP  RH WIND       PRES   REMARKS
*LOCKWOOD VLY    N/A     37  34  87 MISG        N/A
*ROSE VALLEY     N/A     46  46 100 MISG        N/A

$$

CAZ034-035-036-241500-
CENTRAL COAST AND SANTA YNEZ VALLEY


CITY           SKY/WX    TMP DP  RH WIND       PRES   REMARKS
SAN LUIS OBISP CLOUDY    57  52  83 NW7       29.96R HAZE
SANTA MARIA    CLOUDY    54  54 100 W6        29.97R

CITY           SKY/WX    TMP DP  RH WIND       PRES   REMARKS
*CAL POLY SLO    N/A     54  54 100 SW3         N/A
*LOMPOC        CLOUDY    55  53  93 W3        29.97R
*PISMO BEACH     N/A     55  53  94 CALM      29.97R
*SANTA YNEZ    CLOUDY    54  46  76 CALM      29.97R

$$

CAZ037-038-051-241500-
SAN LUIS OBISPO COUNTY INTERIOR AND CUYAMA VALLEY


CITY           SKY/WX    TMP DP  RH WIND       PRES   REMARKS
*CUYAMA          N/A     50  45  85 W1        29.89R
PASO ROBLES    CLOUDY    54  48  80 N3        29.94R

$$

CAZ032-033-061-241500-
SOUTHERN DESERTS


CITY           SKY/WX    TMP DP  RH WIND       PRES   REMARKS
BLYTHE         SUNNY     67  46  47 E3        29.82R
IMPERIAL       SUNNY     64  43  46 W23G30    29.84R
PALM SPRINGS   MOSUNNY   64  39  39 W14G21    29.85R
THERMAL        SUNNY     66  42  41 N17       29.82R

$$

ELSEWHERE ACROSS THE WESTERN UNITED STATES AND MEXICO


CITY           SKY/WX    TMP DP  RH WIND       PRES   REMARKS
DEATH VALLEY,    N/A     73  40  29 E5          N/A
DENVER, CO     MOSUNNY   54  45  71 SE6       29.98R
GRAND CANYON,  MOSUNNY   48  23  37 CALM      29.99R
HONOLULU, HI   PTCLDY    73  66  78 N3        30.05S
KAHULUI, MAUI  CLEAR     66  63  88 W3        30.04S
LAKE TAHOE, CA CLOUDY    34  33  96 CALM      29.92S
LAS VEGAS, NV  MOSUNNY   64  35  34 SW10      29.75R
MAMMOTH LAKES, FAIR      35  30  80 SE3       29.91S
MEXICO CITY, M SUNNY     64  52  63 CALM      30.39R
PHOENIX, AZ    SUNNY     69  35  28 E7        29.85R
PORTLAND, OR   PTSUNNY   56  49  77 NW5       29.96S
RENO, NV       PTSUNNY   49  39  68 SE5       29.90R
SALT LAKE CITY PTSUNNY   56  40  55 SW10      29.80R
SAN DIEGO, CA  PTSUNNY   63  48  58 W9        29.99R
SAN FRANCISCO, CLOUDY    56  49  77 W15       29.93R
SAN JOSE, CA   PTSUNNY   58  49  72 S3        29.93R
SEATTLE, WA    PTSUNNY   56  49  77 N5        29.96R
TIJUANA, MEX   PTSUNNY   57  46  67 CALM      30.00R

$$

STATION/POSITION TIME  TEMP    WIND        PRES    VSBY  WAVE
                       AIR SEA DIR/SP/G                  HT/PER
                 (UTC) (F)     (DEG/KT/KT) (MB)    (MI)  (FT/S)
POINT ARGUELLO B NOT AVBL
WEST SANTA BARBA 1350   55 55  350/ 10/ 12 1014.1R         3/ 5
POINT CONCEPTION NOT AVBL
EAST SANTA BARBA 1400   57 58  290/ 12/ 16 1014.8R
SANTA MONICA BAY 1350   59 63  280/  4/  4 1014.5R         4/ 6


USA.gov is the U.S. government's official web portal to all federal, state and local government web resources and services.